Regional Weather Roundup
Issued by NWS

Home | Current Version | Previous Version | Text Only | Print | Product List | Glossary Off
Versions: 1 2 3 4 5 6 7 8 9 10 11 12 13 14 15 16 17 18 19 20 21 22 23 24 25 26 27 28 29 30 31 32 33 34 35 36 37 38 39 40 41 42 43 44 45 46 47 48 49 50

000
ASUS45 KPSR 221500
RWRAZ

PRELIMINARY ARIZONA REGIONAL HOURLY WEATHER ROUNDUP
NATIONAL WEATHER SERVICE PHOENIX AZ
800 AM MST SAT NOV 22 2014

NOTE: FAIR INDICATES FEW OR NO CLOUDS BELOW 12,000 FEET WITH NO
SIGNIFICANT WEATHER AND/OR OBSTRUCTIONS TO VISIBILITY.

AZZ001>003-036-221600-
NORTHWEST ARIZONA

CITY           SKY/WX    TMP DP  RH WIND       PRES   REMARKS
KINGMAN        SUNNY     35  20  54 S3        30.09S
$$

AZZ004>008-015-016-018-221600-
NORTH CENTRAL ARIZONA

CITY           SKY/WX    TMP DP  RH WIND       PRES   REMARKS
GRAND CANYON   MOSUNNY   19  11  70 CALM      30.16S
PRESCOTT       SUNNY     33  20  58 S8        30.14R WCI  26
FLAGSTAFF      NOT AVBL
PAYSON         SUNNY     39  18  41 CALM      30.14S
$$

AZZ009>014-017-221600-
NORTHEAST ARIZONA

CITY           SKY/WX    TMP DP  RH WIND       PRES   REMARKS
WINSLOW        NOT AVBL
SAINT JOHNS    MOSUNNY   29  21  72 CALM      30.16R
SHOW LOW       MOSUNNY   25  14  63 CALM      30.18R
$$

AZZ023-221600-
GREATER PHOENIX AREA

CITY           SKY/WX    TMP DP  RH WIND       PRES   REMARKS
PHOENIX        MOSUNNY   48  32  53 E5        30.06R
BUCKEYE          N/A     41  25  52 CALM      30.07R
GLENDALE       MOSUNNY   43  30  61 CALM      30.08R
LUKE AFB       SUNNY     43  28  56 N2        30.06R
DEER VALLEY    SUNNY     46  25  43 CALM      30.07R
SCOTTSDALE     SUNNY     47  29  49 CALM      30.08R
MESA-GATEWAY   MOSUNNY   43  28  56 E8        30.09R
CHANDLER       SUNNY     41  30  65 VRB5      30.08R
$$

AZZ027-028-221600-
SOUTHWEST MARICOPA COUNTY AND PINAL COUNTY

CITY           SKY/WX    TMP DP  RH WIND       PRES   REMARKS
CASA GRANDE    SUNNY     43  30  61 CALM      30.08R
$$

AZZ503-504-507>509-221600-
SOUTHEAST ARIZONA

CITY           SKY/WX    TMP DP  RH WIND       PRES   REMARKS
TUCSON         SUNNY     45  36  70 SE8       30.12R
RYAN FIELD       N/A     68  64  88 SE5       30.11R
NOGALES        SUNNY     38  33  82 CALM      30.11R
SIERRA VISTA   SUNNY     47  26  44 CALM      30.11R
SAFFORD        SUNNY     36  20  52 S3        30.09R
$$

AZZ020-021-025-026-031-221600-
SOUTHWEST ARIZONA

CITY           SKY/WX    TMP DP  RH WIND       PRES   REMARKS
YUMA           NOT AVBL
$$

CAZ031-033-041-043-047-048-061-221600-
SOUTHERN CALIFORNIA

CITY           SKY/WX    TMP DP  RH WIND       PRES   REMARKS
DOWNTOWN L.A.  SUNNY     54  42  64 CALM      30.08R
L.A. AIRPORT   MOSUNNY   55  42  61 E5        30.09R
SAN DIEGO      MOSUNNY   56  48  74 CALM      30.11R
BURBANK        SUNNY     49  38  65 N3        30.08R
ONTARIO        MOSUNNY   50  42  74 NE3       30.10R
RIVERSIDE      SUNNY     49  44  83 NE5       30.10R
PALM SPRINGS   SUNNY     51  40  65 CALM      30.06R
EL CENTRO NAS  SUNNY     50  43  77 W7        30.04R
IMPERIAL       SUNNY     51  44  77 W6        30.04R
BLYTHE         SUNNY     47  31  53 N3        30.06R
$$

NVZ020-UTZ003-221600-
SOUTHERN NEVADA-UTAH

CITY           SKY/WX    TMP DP  RH WIND       PRES   REMARKS
LAS VEGAS      NOT AVBL
SALT LAKE CITY PTSUNNY   46  24  42 S13       29.84F
$$

NMZ009-TXZ055-221600-
NEW MEXICO-WEST TEXAS

CITY           SKY/WX    TMP DP  RH WIND       PRES   REMARKS
ALBUQUERQUE    MOSUNNY   32  19  58 CALM      30.10S
EL PASO        PTSUNNY   54  41  61 NW7       30.04R
$$


........................KEY........................
SKY/WX - SKY CONDITION/WEATHER
TMP    - TEMPERATURE IN FAHRENHEIT
DP     - DEW POINT IN FAHRENHEIT
RH     - RELATIVE HUMIDITY IN PERCENT
WIND   - DIRECTION AND SPEED IN MILES PER HOUR (MPH)
VRB    - VARIABLE WIND DIRECTION
PRES   - MEAN SEA LEVEL PRESSURE IN INCHES OF MERCURY
         F - FALLING PRESSURE   R - RISING PRESSURE
         S - STEADY PRESSURE
VSB    - VISIBILITY IN MILES
HX     - HEAT INDEX IN FAHRENHEIT
WCI    - WIND CHILL INDEX IN FAHRENHEIT
TC     - TEMPERATURE IN CELSIUS WHICH IS ALSO KNOWN AS
         TEMPERATURE IN CENTIGRADE
AFB    - AIR FORCE BASE
         LUKE AFB IS LUKE AIR FORCE BASE
         DAVIS-MONTHAN IS DAVIS-MONTHAN AIR FORCE BASE
NAS    - NAVAL AIR STATION
         EL CENTRO NAS IS EL CENTRO NAVAL AIR STATION
N/A    - NOT AVAILABLE


USA.gov is the U.S. government's official web portal to all federal, state and local government web resources and services.